Location: Namasale
(1.5000°N, 32.6167°E)
Time: 13:50:13
(UTC+00:00)

Sylda 4400 - Visible Passes

Search period start: 06 August 2020 00:00
Search period end: 16 August 2020 00:00
Orbit: 313 x 6976 km, 6.8° (Epoch: 05 August)

Date Brightness Start Highest point End Pass type
(mag) Time Alt. Az. Time Alt. Az. Time Alt. Az.
06 Aug 5.1 02:49:17 14° W 03:02:21 72° S 03:07:30 10° ESE visible
06 Aug 8.6 17:45:34 10° W 18:22:42 81° N 18:51:53 41° ENE visible
06 Aug 8.3 20:59:39 10° W 22:13:35 16° E 22:15:09 10° E visible
07 Aug 6.4 00:59:56 67° W 01:03:31 90° N 01:13:03 10° E visible
07 Aug 8.3 15:45:44 10° W 16:07:05 85° N 16:58:51 10° E visible
07 Aug 8.3 18:50:12 10° W 19:34:49 80° N 19:48:14 64° ENE visible
07 Aug 7.6 22:10:00 10° W 23:10:32 40° E 23:17:05 10° E visible
08 Aug 5.8 01:56:52 34° W 02:06:23 81° S 02:13:38 10° ESE visible
08 Aug 8.5 16:48:03 10° W 17:15:53 82° N 17:58:14 23° E visible
08 Aug 8.3 19:56:14 10° W 21:21:03 - E 20:44:29 80° NNW visible
08 Aug 6.9 23:21:52 10° W 00:07:23 77° E 00:18:23 10° E visible
09 Aug 5.3 02:53:44 13° W 03:08:21 67° SSW 03:13:53 10° ESE visible
09 Aug 8.5 17:51:09 10° W 18:26:33 80° N 18:54:23 43° ENE visible
09 Aug 8.2 21:03:58 10° W 22:17:50 21° E 22:21:00 10° E visible
10 Aug 6.5 01:04:10 63° W 01:09:00 86° S 01:19:11 10° E visible
10 Aug 8.2 15:51:32 10° W 16:11:34 82° N 17:02:38 10° E visible
10 Aug 8.4 18:55:16 10° W 19:38:20 80° N 19:50:24 67° ENE visible
10 Aug 7.6 22:13:32 10° W 23:14:32 47° E 23:22:51 10° E visible
11 Aug 6.0 02:00:52 33° W 02:11:49 76° S 02:19:34 10° ESE visible
11 Aug 8.4 16:53:29 10° W 17:19:42 80° N 18:00:06 25° E visible
11 Aug 8.3 20:00:40 10° W 21:24:51 - E 20:46:19 79° NNW visible
11 Aug 7.1 23:24:47 10° W 00:11:09 83° ESE 00:24:01 10° E visible
12 Aug 5.6 02:57:28 13° W 03:13:43 63° SSW 03:19:39 10° ESE visible
12 Aug 8.5 17:56:09 10° W 18:29:45 80° N 18:55:55 46° E visible
12 Aug 8.2 21:07:39 10° W 22:21:23 26° E 22:26:11 10° E visible
13 Aug 6.7 01:07:41 59° W 01:13:44 82° S 01:24:40 10° ESE visible
13 Aug 8.1 15:56:43 10° W 16:15:29 80° N 17:05:26 10° E visible
13 Aug 8.4 18:59:44 10° W 19:41:04 81° N 19:51:37 70° ENE visible
13 Aug 7.6 22:16:26 10° W 23:17:50 52° E 23:27:56 10° E visible
14 Aug 6.2 02:04:08 32° W 02:16:33 72° SSW 02:24:53 10° ESE visible
14 Aug 8.3 16:58:19 10° W 17:22:57 79° N 18:01:02 28° E visible
14 Aug 8.4 20:04:29 10° W 21:27:55 10° E 21:28:02 10° E visible
14 Aug 7.2 23:27:00 10° W 00:14:11 85° SSE 00:28:59 10° E visible
15 Aug 5.8 03:00:29 12° W 03:18:26 60° SSW 03:24:48 10° ESE visible
15 Aug 8.4 18:00:32 10° W 18:32:16 80° N 18:56:33 48° E visible
15 Aug 8.2 21:10:43 10° W 22:24:11 30° E 22:30:39 10° E visible
